Hailey, ID

3:51 AM MDT on July 27, 2017 (GMT -0600)
Friedman Memorial

Weather History for KSUN - February, 2014

Change the Weather History Date:

Thursday, February 20, 2014

  Actual Average Record
Temperature  
Mean Temperature 21 °F -  
Max Temperature 32 °F 37 °F 48 °F (2015)
Min Temperature 10 °F 16 °F -5 °F (2006)
Degree Days  
Heating Degree Days 44    
Moisture  
Dew Point 15 °F    
Average Humidity 75    
Maximum Humidity 93    
Minimum Humidity 59    
Precipitation  
Precipitation 0.00 in - - ()
Sea Level Pressure  
Sea Level Pressure 30.08 in    
Wind  
Wind Speed 6 mph (NW)    
Max Wind Speed 15 mph    
Max Gust Speed 25 mph    
Visibility 10 miles    
Events Snow    
Averages and records for this station are not official NWS values.
T = Trace of Precipitation, MM = Missing Value Source: NWS Daily Summary

Daily Weather History Graph

Daily Weather History Graph

Search for Another Location

Airport or City:

Trip Planner

Search our weather history database for the weather conditions in past years. The results will help you decide how hot, cold, wet, or windy it might be!

Date:

Astronomy

Feb. 20, 2014 Rise Set
Actual Time 7:27 AM MST 6:14 PM MST
Civil Twilight 6:58 AM MST 6:43 PM MST
Nautical Twilight 6:25 AM MST 7:16 PM MST
Astronomical Twilight 5:52 AM MST 7:50 PM MST
Moon No Moon Rise 10:02 AM MST (2/20)
Length of Visible Light 11h 44m
Length of Day
10h 46m
Waning Gibbous, 70% of the Moon is Illuminated
Feb 20
Waning Gibbous
Feb 22
Last Quarter
Mar 1
New
Mar 8
First Quarter
Mar 16
Full

Hourly Weather History & Observations

Time (MST) Temp. Windchill Dew Point Humidity Pressure Visibility Wind Dir Wind Speed Gust Speed Precip Events Conditions
12:15 AM 17.6 °F 9.3 °F 10.4 °F 73% 30.07 in 10.0 mi NNW 5.8 mph - N/A   Scattered Clouds
12:35 AM 19.4 °F - 8.6 °F 63% 30.07 in 10.0 mi Calm Calm - N/A   Clear
12:55 AM 17.6 °F - 10.4 °F 73% 30.08 in 10.0 mi Calm Calm - N/A   Clear
1:15 AM 17.6 °F 12.3 °F 8.6 °F 68% 30.08 in 10.0 mi North 3.5 mph - N/A   Clear
1:35 AM 19.4 °F 12.8 °F 8.6 °F 63% 30.08 in 10.0 mi NW 4.6 mph - N/A   Clear
1:55 AM 19.4 °F 9.5 °F 8.6 °F 63% 30.08 in 10.0 mi NNW 8.1 mph - N/A   Clear
2:15 AM 17.6 °F 8.2 °F 8.6 °F 68% 30.09 in 10.0 mi NNW 6.9 mph - N/A   Clear
2:35 AM 17.6 °F 5.7 °F 8.6 °F 68% 30.09 in 10.0 mi NNW 10.4 mph - N/A   Clear
2:55 AM 17.6 °F 8.2 °F 10.4 °F 73% 30.10 in 10.0 mi WNW 6.9 mph - N/A   Clear
3:15 AM 17.6 °F 7.3 °F 10.4 °F 73% 30.11 in 10.0 mi NW 8.1 mph - N/A   Clear
3:35 AM 17.6 °F 8.2 °F 8.6 °F 68% 30.11 in 10.0 mi NW 6.9 mph - N/A   Clear
3:55 AM 14.0 °F 3.9 °F 8.6 °F 79% 30.11 in 10.0 mi WNW 6.9 mph - N/A   Clear
4:15 AM 14.0 °F 5.1 °F 8.6 °F 79% 30.11 in 10.0 mi NNE 5.8 mph - N/A   Clear
4:35 AM 14.0 °F 5.1 °F 8.6 °F 79% 30.12 in 10.0 mi North 5.8 mph - N/A   Clear
4:55 AM 12.2 °F -0.2 °F 8.6 °F 85% 30.12 in 10.0 mi North 9.2 mph - N/A   Clear
5:15 AM 12.2 °F 2.9 °F 8.6 °F 85% 30.12 in 10.0 mi NNW 5.8 mph - N/A   Clear
5:35 AM 12.2 °F 1.7 °F 6.8 °F 79% 30.12 in 10.0 mi North 6.9 mph - N/A   Clear
5:55 AM 12.2 °F 0.7 °F 8.6 °F 85% 30.12 in 10.0 mi NW 8.1 mph - N/A   Clear
6:47 AM 10.4 °F -1.5 °F 6.8 °F 85% 30.13 in 10.0 mi WNW 8.1 mph - N/A   Clear
7:47 AM 10.4 °F 0.8 °F 5.0 °F 79% 30.14 in 10.0 mi WNW 5.8 mph - N/A   Partly Cloudy
8:47 AM 15.8 °F 7.2 °F 6.8 °F 68% 30.15 in 10.0 mi NW 5.8 mph - N/A   Partly Cloudy
9:50 AM 19.4 °F 11.5 °F 10.4 °F 68% 30.15 in 10.0 mi WNW 5.8 mph - N/A   Partly Cloudy
10:52 AM 24.8 °F - 12.2 °F 59% 30.14 in 10.0 mi Calm Calm - N/A   Partly Cloudy
11:47 AM 26.6 °F 18.2 °F 17.6 °F 69% 30.13 in 10.0 mi SE 8.1 mph - N/A   Partly Cloudy
12:55 PM 32.0 °F 23.6 °F 19.4 °F 60% 30.10 in 10.0 mi South 10.4 mph - N/A   Scattered Clouds
1:47 PM 32.0 °F 21.6 °F 19.4 °F 60% 30.08 in 10.0 mi SSW 15.0 mph 24.2 mph N/A   Mostly Cloudy
2:47 PM 32.0 °F 23.0 °F 19.4 °F 60% 30.07 in 10.0 mi South 11.5 mph - N/A Snow Light Snow
3:50 PM 32.0 °F 23.0 °F 21.2 °F 64% - 10.0 mi SW 11.5 mph 25.3 mph N/A Snow Light Snow
4:50 PM 30.2 °F 21.9 °F 21.2 °F 69% 30.04 in 10.0 mi SSW 9.2 mph 17.3 mph N/A   Mostly Cloudy
5:47 PM 30.2 °F 21.9 °F 23.0 °F 75% 30.03 in 10.0 mi South 9.2 mph - N/A   Mostly Cloudy
6:47 PM 30.2 °F 23.4 °F 23.0 °F 75% 30.02 in 10.0 mi SE 6.9 mph - N/A   Mostly Cloudy
7:50 PM 28.4 °F 19.1 °F 24.8 °F 86% 30.00 in 10.0 mi East 10.4 mph - N/A   Mostly Cloudy
8:47 PM 28.4 °F 22.2 °F 24.8 °F 86% 30.00 in 10.0 mi East 5.8 mph - N/A   Mostly Cloudy
9:47 PM 28.4 °F 19.1 °F 24.8 °F 86% 30.01 in 10.0 mi ESE 10.4 mph - N/A   Mostly Cloudy
10:15 PM 26.6 °F 20.0 °F 23.0 °F 86% 30.01 in 10.0 mi SE 5.8 mph - N/A   Scattered Clouds
10:35 PM 28.4 °F 22.2 °F 26.6 °F 93% 30.01 in 10.0 mi ESE 5.8 mph - N/A   Clear
10:47 PM 26.6 °F - 23.0 °F 86% 30.01 in 10.0 mi Calm Calm - N/A   Mostly Cloudy
10:55 PM 28.4 °F - 24.8 °F 86% 30.01 in 10.0 mi Calm Calm - N/A   Clear
11:15 PM 28.4 °F 21.2 °F 23.0 °F 80% 30.01 in 10.0 mi NW 6.9 mph - N/A   Clear
11:35 PM 26.6 °F 18.2 °F 23.0 °F 86% 30.01 in 10.0 mi NW 8.1 mph - N/A   Clear
11:55 PM 26.6 °F 22.6 °F 21.2 °F 80% 30.01 in 10.0 mi WNW 3.5 mph - N/A   Clear